SCP
0 0 0 0 0 0 0 0 0 0 0 0 0 0 0 0 0 0 0 0 1 1 0 0 0 1 1 0 1 0 0 0 0 0 0 0 0 0 0 0 0 0 0
0 0 0 0 0 0 0 0 0 0 0 0 0 0 0 0 0 0 0 0 1 0 0 1 1 1 1 1 0 0 0 0 0 0 0 0 0 0 0 0 0 0 0
0 0 0 0 0 0 0 0 0 0 0 0 0 0 0 0 0 0 0 0 0 0 0 0 1 1 1 0 0 1 0 0 0 0 0 0 0 0 0 0 0 0 0
1 1 0 0 0 0 0 0 0 0 0 0 0 0 0 0 0 0 0 0 0 0 0 0 0 1 0 1 0 0 0 0 0 0 0 0 0 0 0 0 0 0 0
1 1 1 1 0 0 0 0 0 0 0 0 0 0 0 0 0 0 0 0 0 0 0 0 0 0 1 1 1 1 0 0 0 0 0 0 0 0 0 0 0 0 0
1 1 1 1 1 0 0 0 0 0 0 0 0 -0 0 0 0 0 0 0 0 0 0 0 0 1 0 1 1 1 0 0 0 0 0 0 0 0 0 0 0 0 0
1 2 2 2 1 0 0 0 0 0 0 0 0 0 -0 0 0 0 0 0 0 0 0 0 0 0 0 1 1 0 0 0 0 0 0 0 0 0 0 0 0 0 0
0 1 2 1 1 1 0 0 0 0 0 0 0 0 -0 -0 -0 0 0 0 0 0 0 0 1 1 0 0 0 0 1 0 0 0 0 0 0 0 0 0 0 0 0
0 1 1 2 1 1 1 1 0 0 0 0 0 0 0 -0 -0 -0 0 0 0 0 0 0 1 0 0 0 0 0 0 0 0 0 0 0 0 0 0 0 0 0 0
0 0 1 1 1 1 1 0 1 0 0 0 0 0 0 0 1 0 0 0 0 0 0 0 0 0 0 0 0 0 0 0 0 0 0 0 0 0 0 0 0 0 0
0 0 0 1 2 2 1 1 1 1 0 0 0 0 1 1 0 1 0 0 0 0 0 0 0 0 0 0 0 0 0 0 0 0 0 0 0 0 0 0 -0 0 0
0 0 0 0 2 3 3 2 1 1 0 0 0 0 0 0 1 1 1 1 1 0 0 0 0 0 0 0 0 0 0 0 0 0 0 0 0 0 0 -0 -0 -0 0
0 0 0 0 0 3 4 3 2 -0 0 1 0 0 0 0 0 1 1 1 1 0 0 0 0 0 0 0 0 0 0 0 0 0 0 0 0 0 -0 0 0 0 0
0 0 0 0 0 0 0 6 6 5 2 1 0 1 1 1 1 1 1 1 1 0 0 0 0 0 0 0 0 0 0 0 0 0 0 0 0 0 0 0 0 0 -0
0 0 0 0 0 0 0 1 2 2 2 1 0 1 1 1 1 2 1 1 2 1 0 0 0 0 0 0 0 0 0 0 0 0 0 0 0 0 0 0 0 0 0
0 0 0 0 0 0 0 0 0 1 2 2 2 1 1 2 2 2 1 1 0 1 0 0 0 0 0 0 0 0 0 0 0 0 0 0 0 0 0 0 0 0 0
0 0 0 0 0 0 0 0 0 0 0 1 2 1 1 2 3 2 2 1 1 0 0 0 0 0 0 0 0 0 0 0 0 0 0 0 0 0 0 0 0 0 0
0 0 0 0 0 0 0 0 0 0 0 0 1 1 1 3 2 2 2 1 0 0 0 0 0 0 0 0 0 0 0 0 0 0 0 0 0 0 0 0 0 0 0
0 0 0 0 0 0 0 0 0 0 0 0 0 1 0 2 2 3 2 1 0 0 0 0 0 0 0 0 0 0 0 0 0 0 0 0 0 0 0 0 0 0 0
0 0 0 0 0 0 0 0 0 0 0 0 0 1 1 2 2 2 1 0 0 0 0 0 0 0 0 0 0 0 0 0 0 0 0 0 0 0 0 0 0 0 0
0 0 0 0 0 0 0 0 0 0 0 0 0 0 0 1 1 2 1 0 0 0 0 0 0 0 0 0 0 0 0 0 0 0 0 0 0 0 0 0 0 0 0
0 0 0 0 0 0 0 0 0 0 0 -0 -0 -0 0 0 0 0 0 0 0 0 0 0 0 0 0 0 0 0 0 0 0 0 0 0 0 0 0 0 0 0 0
0 0 0 0 0 0 0 0 -0 0 -0 -0 -0 -0 -0 0 0 0 0 0 0 0 0 0 0 0 0 0 0 0 0 0 0 0 0 0 0 0 0 0 0 0 0
0 0 0 0 0 0 0 0 0 -0 -0 -0 -0 -0 -0 0 0 0 0 0 0 0 0 0 0 0 0 0 0 0 0 0 0 0 0 0 0 0 0 0 0 0 0
0 0 0 0 0 0 0 0 0 0 -0 -0 -0 -0 -0 0 0 0 0 0 0 0 0 0 0 0 0 0 0 0 0 0 0 0 0 0 0 0 0 0 0 0 0
0 0 0 0 0 0 0 0 0 0 -0 -0 -0 -0 -0 0 0 0 0 0 0 0 0 0 0 0 0 0 0 0 0 0 0 0 0 0 0 0 0 0 0 0 0
Wind_Speed_500mb
42 38 36 33 26 18 17 15 18 17 20 24 25 24 24 22 24 24 26 29 36 39 40 37 35 21 22 20 23 25 26 26 30 30 31 31 31 30 35 43 46 43 39
44 42 39 38 31 23 20 22 25 29 29 34 31 31 32 32 28 25 30 34 31 34 34 27 23 20 20 26 19 27 26 27 31 30 31 32 32 33 34 41 48 49 45
41 40 40 43 35 28 28 32 32 33 37 42 44 41 42 43 37 31 26 33 34 29 27 26 28 25 28 21 24 27 26 25 28 30 30 31 32 34 34 36 40 43 43
32 33 34 34 29 32 33 37 40 44 49 47 53 53 50 46 43 37 30 34 33 27 14 15 19 22 25 27 29 30 25 21 25 29 29 30 33 34 33 33 37 38 38
35 35 36 37 34 37 38 40 45 46 51 49 48 59 51 48 41 42 33 33 33 30 18 20 19 24 31 30 31 28 23 26 27 29 29 30 32 33 33 33 35 38 39
45 43 44 45 44 42 38 36 38 42 50 48 49 60 60 48 44 48 40 37 33 30 24 23 23 28 33 31 29 25 28 33 32 29 30 30 32 32 31 33 35 38 39
50 49 54 54 45 48 39 35 34 33 40 42 51 54 64 62 55 47 34 29 34 28 27 25 25 28 36 32 31 24 30 32 36 30 30 31 32 32 31 33 35 39 38
60 70 60 55 47 55 52 41 32 37 38 37 56 58 66 63 55 27 25 23 28 32 32 25 27 31 36 34 29 28 30 31 35 32 27 30 32 32 33 34 35 37 38
50 51 52 49 43 52 50 56 44 40 38 43 62 52 26 38 57 43 25 31 32 32 31 26 24 30 33 33 32 31 30 25 27 27 28 29 31 32 34 35 36 37 37
63 58 59 55 57 56 56 54 50 49 40 43 67 74 77 65 58 52 30 47 37 34 32 33 27 26 31 32 29 28 26 24 27 28 27 27 30 33 33 36 37 36 37
84 54 68 68 76 64 62 61 60 75 70 61 60 81 84 85 85 68 71 56 44 50 38 38 35 37 36 36 29 26 27 25 27 27 29 27 27 31 31 34 36 33 33
56 60 75 75 65 74 64 59 58 66 75 81 71 75 87 86 74 66 46 49 56 56 38 33 31 39 42 38 28 22 22 28 29 26 28 26 27 28 29 32 34 33 32
55 66 76 74 58 53 68 73 87 82 91 98 88 85 82 87 89 88 69 59 55 58 44 41 38 35 45 41 32 25 25 28 30 30 29 27 27 26 27 31 33 32 31
44 40 42 47 61 52 52 42 60 68 95 92 95 96 83 81 82 87 81 62 57 59 56 51 40 31 44 44 35 29 30 26 32 33 31 27 27 25 27 29 30 29 30
34 41 43 46 47 51 50 48 48 51 66 76 88 93 82 75 78 70 70 63 55 61 61 52 47 36 38 43 38 33 32 27 32 33 31 28 27 25 26 27 28 28 28
40 46 45 46 48 48 47 47 54 58 57 62 78 88 83 76 71 70 64 63 66 68 70 53 41 40 34 44 42 37 33 32 30 29 28 30 29 25 27 29 28 29 27
43 48 50 48 44 47 50 52 53 55 60 66 71 81 87 77 72 67 63 61 64 67 69 56 45 36 36 43 42 36 32 32 28 27 27 32 31 28 28 32 31 30 26
45 45 47 50 52 50 54 55 61 60 61 61 63 74 82 75 76 72 66 68 67 70 67 57 48 41 43 39 36 32 34 32 29 28 31 34 35 34 33 32 33 32 28
54 55 56 60 62 63 66 65 63 61 63 63 62 65 80 73 75 78 74 71 63 67 63 56 47 42 43 40 34 34 35 33 30 27 33 36 36 35 35 33 35 35 32
58 57 62 73 78 73 65 65 65 62 63 61 64 61 72 79 79 77 79 68 61 68 60 56 44 43 43 40 35 35 32 35 31 30 31 32 36 36 39 38 37 35 34
60 63 68 71 77 80 76 74 69 65 68 68 74 68 64 74 79 74 76 69 63 62 57 54 48 45 45 40 36 30 27 28 26 27 27 30 30 35 37 40 39 38 37
61 64 70 77 84 88 91 84 79 77 73 76 80 77 67 67 73 74 68 50 41 54 57 57 51 50 43 35 27 29 27 33 30 28 25 28 31 34 34 35 36 37 39
76 75 76 78 86 92 94 96 93 83 78 80 79 83 76 68 69 69 58 47 43 51 52 47 47 48 39 33 28 30 31 35 32 28 21 27 26 31 35 35 34 36 38
80 88 93 97 100 102 101 101 105 99 89 90 82 83 81 70 72 67 60 55 51 58 49 38 39 35 31 27 27 22 15 26 29 27 23 22 22 22 27 30 31 34 35
90 98 102 105 109 107 102 103 105 101 97 89 85 82 81 73 72 62 65 63 59 57 47 43 36 32 30 27 26 30 31 34 35 30 29 24 23 24 23 25 28 30 30
105 106 107 96 93 95 94 96 94 91 92 82 86 81 77 67 65 55 57 58 62 56 50 44 39 35 30 28 29 30 26 34 35 27 28 30 26 23 19 31 29 30 30
Wind_Direction_500mb
235 239 243 244 239 235 246 264 282 286 302 314 304 313 317 309 309 312 313 310 301 295 287 283 282 299 311 293 291 300 294 289 282 272 265 260 260 257 243 233 231 237 247
242 248 251 255 253 252 260 270 280 286 293 295 299 308 313 311 302 306 305 304 304 290 281 273 274 276 291 292 305 299 292 295 284 271 267 260 259 260 250 240 238 241 246
243 247 250 253 256 258 267 271 273 284 290 295 298 304 308 310 298 293 296 293 302 294 277 274 263 271 279 289 289 293 298 300 283 273 269 262 261 256 254 244 240 241 239
230 235 245 248 251 256 265 272 276 278 281 285 291 295 300 296 289 288 292 291 296 285 278 283 250 290 289 284 295 300 289 307 291 273 269 262 262 256 253 245 239 238 232
237 245 253 260 260 258 258 261 266 269 272 276 280 285 287 289 290 288 290 290 290 280 275 266 257 269 278 284 301 310 296 303 296 276 269 260 260 254 249 243 237 235 231
241 245 255 262 263 262 263 259 262 266 271 275 272 284 286 284 297 293 289 284 281 275 280 273 260 273 280 285 288 299 304 299 294 287 265 259 261 253 247 240 236 235 230
244 252 260 261 255 258 260 270 275 286 288 280 280 279 288 289 299 293 293 272 268 267 272 272 268 271 275 278 279 289 301 298 287 291 265 256 257 249 246 238 234 234 231
252 255 252 247 249 258 257 253 282 299 286 282 270 275 286 292 297 327 304 276 273 266 259 273 268 275 281 279 279 270 286 304 288 279 271 256 252 247 246 239 234 233 233
256 248 244 250 253 259 266 255 263 293 285 291 267 265 268 277 289 302 310 313 307 277 258 270 270 266 273 276 281 275 284 311 298 285 269 256 247 247 247 239 234 232 233
258 255 260 249 252 256 262 274 276 272 276 292 274 264 264 269 271 286 276 295 301 290 286 278 268 268 271 277 278 282 282 299 303 285 277 258 247 249 247 235 232 234 237
242 250 255 262 262 258 259 260 276 278 284 287 274 276 269 270 262 262 279 288 298 299 289 279 281 270 270 271 275 281 279 279 291 299 275 262 251 249 245 227 229 234 240
234 238 249 257 256 262 261 268 265 272 269 277 280 272 271 269 266 257 252 269 294 297 278 274 272 267 261 261 270 270 274 268 283 291 278 260 249 245 237 224 229 234 240
249 238 246 253 253 259 254 257 258 266 265 260 276 277 273 267 269 265 263 268 280 288 275 279 274 260 252 252 263 264 271 272 281 286 283 260 238 245 234 229 231 235 242
257 260 243 245 247 258 257 261 255 250 259 248 265 269 271 271 270 269 265 260 268 278 273 273 272 256 247 244 252 261 266 278 276 281 276 252 233 243 233 229 233 236 243
269 264 263 263 258 252 255 253 260 256 252 250 258 263 264 274 274 275 267 257 257 268 267 275 268 246 245 240 249 255 264 282 282 274 263 241 232 242 232 228 232 238 243
282 285 277 273 271 267 261 260 254 255 262 253 254 262 268 276 276 274 266 262 258 257 261 267 254 247 245 239 241 244 264 279 277 267 249 232 232 236 231 230 229 235 242
284 293 283 279 282 281 276 271 271 264 259 262 262 266 271 275 276 275 268 266 258 253 250 258 239 237 241 227 234 246 264 279 266 256 243 234 234 235 234 230 232 236 236
292 298 307 303 291 288 285 283 283 281 274 267 267 267 269 271 274 274 269 261 257 242 240 245 235 229 224 226 234 255 270 271 262 252 242 236 234 236 238 234 233 236 233
282 289 295 302 300 304 290 287 288 284 282 274 271 275 269 271 271 274 269 260 250 237 239 236 228 227 223 222 236 253 263 262 256 251 242 234 232 234 230 231 231 233 232
271 279 288 296 300 300 299 298 291 288 282 277 272 281 275 271 271 272 269 260 242 229 232 230 230 226 225 226 237 250 258 261 250 247 242 234 233 231 228 234 233 231 234
271 278 284 286 290 294 294 300 297 288 288 281 271 272 271 271 276 270 264 257 234 227 225 221 220 224 219 230 247 256 260 243 249 239 236 230 232 231 230 234 233 233 234
265 273 276 283 287 289 290 293 296 288 275 276 278 270 269 271 276 267 260 253 235 235 225 217 222 230 235 240 245 247 244 221 228 235 239 242 235 232 231 232 233 235 237
273 271 273 276 280 283 286 289 291 294 280 277 280 272 270 271 277 264 251 232 218 253 241 227 230 233 232 243 243 240 241 232 228 230 244 244 244 230 232 234 236 236 236
273 276 277 277 277 275 277 279 284 285 286 277 276 271 266 273 272 260 231 222 227 224 221 221 228 234 239 237 237 232 250 232 227 237 241 244 236 235 236 236 233 233 233
276 277 279 278 274 271 270 273 274 276 280 274 272 268 261 270 265 251 228 219 216 216 209 210 219 225 229 224 218 216 221 211 218 234 234 234 231 226 236 239 227 227 225
280 280 277 268 264 264 263 267 270 267 269 269 265 264 257 264 255 245 210 225 222 207 206 208 213 222 219 213 212 219 228 219 222 228 235 240 244 225 241 245 234 226 225
Wind_Speed_850mb
42 38 36 33 26 18 17 15 18 17 20 24 25 24 24 22 24 24 26 29 36 39 40 37 35 21 22 20 23 25 26 26 30 30 31 31 31 30 35 43 46 43 39
44 42 39 38 31 23 20 22 25 29 29 34 31 31 32 32 28 25 30 34 31 34 34 27 23 20 20 26 19 27 26 27 31 30 31 32 32 33 34 41 48 49 45
41 40 40 43 35 28 28 32 32 33 37 42 44 41 42 43 37 31 26 33 34 29 27 26 28 25 28 21 24 27 26 25 28 30 30 31 32 34 34 36 40 43 43
32 33 34 34 29 32 33 37 40 44 49 47 53 53 50 46 43 37 30 34 33 27 14 15 19 22 25 27 29 30 25 21 25 29 29 30 33 34 33 33 37 38 38
35 35 36 37 34 37 38 40 45 46 51 49 48 59 51 48 41 42 33 33 33 30 18 20 19 24 31 30 31 28 23 26 27 29 29 30 32 33 33 33 35 38 39
45 43 44 45 44 42 38 36 38 42 50 48 49 60 60 48 44 48 40 37 33 30 24 23 23 28 33 31 29 25 28 33 32 29 30 30 32 32 31 33 35 38 39
50 49 54 54 45 48 39 35 34 33 40 42 51 54 64 62 55 47 34 29 34 28 27 25 25 28 36 32 31 24 30 32 36 30 30 31 32 32 31 33 35 39 38
60 70 60 55 47 55 52 41 32 37 38 37 56 58 66 63 55 27 25 23 28 32 32 25 27 31 36 34 29 28 30 31 35 32 27 30 32 32 33 34 35 37 38
50 51 52 49 43 52 50 56 44 40 38 43 62 52 26 38 57 43 25 31 32 32 31 26 24 30 33 33 32 31 30 25 27 27 28 29 31 32 34 35 36 37 37
63 58 59 55 57 56 56 54 50 49 40 43 67 74 77 65 58 52 30 47 37 34 32 33 27 26 31 32 29 28 26 24 27 28 27 27 30 33 33 36 37 36 37
84 54 68 68 76 64 62 61 60 75 70 61 60 81 84 85 85 68 71 56 44 50 38 38 35 37 36 36 29 26 27 25 27 27 29 27 27 31 31 34 36 33 33
56 60 75 75 65 74 64 59 58 66 75 81 71 75 87 86 74 66 46 49 56 56 38 33 31 39 42 38 28 22 22 28 29 26 28 26 27 28 29 32 34 33 32
55 66 76 74 58 53 68 73 87 82 91 98 88 85 82 87 89 88 69 59 55 58 44 41 38 35 45 41 32 25 25 28 30 30 29 27 27 26 27 31 33 32 31
44 40 42 47 61 52 52 42 60 68 95 92 95 96 83 81 82 87 81 62 57 59 56 51 40 31 44 44 35 29 30 26 32 33 31 27 27 25 27 29 30 29 30
34 41 43 46 47 51 50 48 48 51 66 76 88 93 82 75 78 70 70 63 55 61 61 52 47 36 38 43 38 33 32 27 32 33 31 28 27 25 26 27 28 28 28
40 46 45 46 48 48 47 47 54 58 57 62 78 88 83 76 71 70 64 63 66 68 70 53 41 40 34 44 42 37 33 32 30 29 28 30 29 25 27 29 28 29 27
43 48 50 48 44 47 50 52 53 55 60 66 71 81 87 77 72 67 63 61 64 67 69 56 45 36 36 43 42 36 32 32 28 27 27 32 31 28 28 32 31 30 26
45 45 47 50 52 50 54 55 61 60 61 61 63 74 82 75 76 72 66 68 67 70 67 57 48 41 43 39 36 32 34 32 29 28 31 34 35 34 33 32 33 32 28
54 55 56 60 62 63 66 65 63 61 63 63 62 65 80 73 75 78 74 71 63 67 63 56 47 42 43 40 34 34 35 33 30 27 33 36 36 35 35 33 35 35 32
58 57 62 73 78 73 65 65 65 62 63 61 64 61 72 79 79 77 79 68 61 68 60 56 44 43 43 40 35 35 32 35 31 30 31 32 36 36 39 38 37 35 34
60 63 68 71 77 80 76 74 69 65 68 68 74 68 64 74 79 74 76 69 63 62 57 54 48 45 45 40 36 30 27 28 26 27 27 30 30 35 37 40 39 38 37
61 64 70 77 84 88 91 84 79 77 73 76 80 77 67 67 73 74 68 50 41 54 57 57 51 50 43 35 27 29 27 33 30 28 25 28 31 34 34 35 36 37 39
76 75 76 78 86 92 94 96 93 83 78 80 79 83 76 68 69 69 58 47 43 51 52 47 47 48 39 33 28 30 31 35 32 28 21 27 26 31 35 35 34 36 38
80 88 93 97 100 102 101 101 105 99 89 90 82 83 81 70 72 67 60 55 51 58 49 38 39 35 31 27 27 22 15 26 29 27 23 22 22 22 27 30 31 34 35
90 98 102 105 109 107 102 103 105 101 97 89 85 82 81 73 72 62 65 63 59 57 47 43 36 32 30 27 26 30 31 34 35 30 29 24 23 24 23 25 28 30 30
105 106 107 96 93 95 94 96 94 91 92 82 86 81 77 67 65 55 57 58 62 56 50 44 39 35 30 28 29 30 26 34 35 27 28 30 26 23 19 31 29 30 30
Wind_Direction_850mb
235 239 243 244 239 235 246 264 282 286 302 314 304 313 317 309 309 312 313 310 301 295 287 283 282 299 311 293 291 300 294 289 282 272 265 260 260 257 243 233 231 237 247
242 248 251 255 253 252 260 270 280 286 293 295 299 308 313 311 302 306 305 304 304 290 281 273 274 276 291 292 305 299 292 295 284 271 267 260 259 260 250 240 238 241 246
243 247 250 253 256 258 267 271 273 284 290 295 298 304 308 310 298 293 296 293 302 294 277 274 263 271 279 289 289 293 298 300 283 273 269 262 261 256 254 244 240 241 239
230 235 245 248 251 256 265 272 276 278 281 285 291 295 300 296 289 288 292 291 296 285 278 283 250 290 289 284 295 300 289 307 291 273 269 262 262 256 253 245 239 238 232
237 245 253 260 260 258 258 261 266 269 272 276 280 285 287 289 290 288 290 290 290 280 275 266 257 269 278 284 301 310 296 303 296 276 269 260 260 254 249 243 237 235 231
241 245 255 262 263 262 263 259 262 266 271 275 272 284 286 284 297 293 289 284 281 275 280 273 260 273 280 285 288 299 304 299 294 287 265 259 261 253 247 240 236 235 230
244 252 260 261 255 258 260 270 275 286 288 280 280 279 288 289 299 293 293 272 268 267 272 272 268 271 275 278 279 289 301 298 287 291 265 256 257 249 246 238 234 234 231
252 255 252 247 249 258 257 253 282 299 286 282 270 275 286 292 297 327 304 276 273 266 259 273 268 275 281 279 279 270 286 304 288 279 271 256 252 247 246 239 234 233 233
256 248 244 250 253 259 266 255 263 293 285 291 267 265 268 277 289 302 310 313 307 277 258 270 270 266 273 276 281 275 284 311 298 285 269 256 247 247 247 239 234 232 233
258 255 260 249 252 256 262 274 276 272 276 292 274 264 264 269 271 286 276 295 301 290 286 278 268 268 271 277 278 282 282 299 303 285 277 258 247 249 247 235 232 234 237
242 250 255 262 262 258 259 260 276 278 284 287 274 276 269 270 262 262 279 288 298 299 289 279 281 270 270 271 275 281 279 279 291 299 275 262 251 249 245 227 229 234 240
234 238 249 257 256 262 261 268 265 272 269 277 280 272 271 269 266 257 252 269 294 297 278 274 272 267 261 261 270 270 274 268 283 291 278 260 249 245 237 224 229 234 240
249 238 246 253 253 259 254 257 258 266 265 260 276 277 273 267 269 265 263 268 280 288 275 279 274 260 252 252 263 264 271 272 281 286 283 260 238 245 234 229 231 235 242
257 260 243 245 247 258 257 261 255 250 259 248 265 269 271 271 270 269 265 260 268 278 273 273 272 256 247 244 252 261 266 278 276 281 276 252 233 243 233 229 233 236 243
269 264 263 263 258 252 255 253 260 256 252 250 258 263 264 274 274 275 267 257 257 268 267 275 268 246 245 240 249 255 264 282 282 274 263 241 232 242 232 228 232 238 243
282 285 277 273 271 267 261 260 254 255 262 253 254 262 268 276 276 274 266 262 258 257 261 267 254 247 245 239 241 244 264 279 277 267 249 232 232 236 231 230 229 235 242
284 293 283 279 282 281 276 271 271 264 259 262 262 266 271 275 276 275 268 266 258 253 250 258 239 237 241 227 234 246 264 279 266 256 243 234 234 235 234 230 232 236 236
292 298 307 303 291 288 285 283 283 281 274 267 267 267 269 271 274 274 269 261 257 242 240 245 235 229 224 226 234 255 270 271 262 252 242 236 234 236 238 234 233 236 233
282 289 295 302 300 304 290 287 288 284 282 274 271 275 269 271 271 274 269 260 250 237 239 236 228 227 223 222 236 253 263 262 256 251 242 234 232 234 230 231 231 233 232
271 279 288 296 300 300 299 298 291 288 282 277 272 281 275 271 271 272 269 260 242 229 232 230 230 226 225 226 237 250 258 261 250 247 242 234 233 231 228 234 233 231 234
271 278 284 286 290 294 294 300 297 288 288 281 271 272 271 271 276 270 264 257 234 227 225 221 220 224 219 230 247 256 260 243 249 239 236 230 232 231 230 234 233 233 234
265 273 276 283 287 289 290 293 296 288 275 276 278 270 269 271 276 267 260 253 235 235 225 217 222 230 235 240 245 247 244 221 228 235 239 242 235 232 231 232 233 235 237
273 271 273 276 280 283 286 289 291 294 280 277 280 272 270 271 277 264 251 232 218 253 241 227 230 233 232 243 243 240 241 232 228 230 244 244 244 230 232 234 236 236 236
273 276 277 277 277 275 277 279 284 285 286 277 276 271 266 273 272 260 231 222 227 224 221 221 228 234 239 237 237 232 250 232 227 237 241 244 236 235 236 236 233 233 233
276 277 279 278 274 271 270 273 274 276 280 274 272 268 261 270 265 251 228 219 216 216 209 210 219 225 229 224 218 216 221 211 218 234 234 234 231 226 236 239 227 227 225
280 280 277 268 264 264 263 267 270 267 269 269 265 264 257 264 255 245 210 225 222 207 206 208 213 222 219 213 212 219 228 219 222 228 235 240 244 225 241 245 234 226 225